Marianna, FL

6:34 AM CDT on August 21, 2017 (GMT -0500)
Marianna Municipal

Weather History for KMAI - May, 2013

Change the Weather History Date:

Wednesday, May 8, 2013

  Actual Average Record
Temperature  
Mean Temperature 68 °F 73 °F  
Max Temperature 82 °F 85 °F 91 °F (1998)
Min Temperature 54 °F 61 °F 46 °F (2007)
Degree Days  
Heating Degree Days 0    
Month to date heating degree days 20  
Since 1 July heating degree days 1376  
Cooling Degree Days 3    
Month to date cooling degree days 15  
Year to date cooling degree days 189  
Growing Degree Days 18 (Base 50)    
Moisture  
Dew Point 56 °F    
Average Humidity 65    
Maximum Humidity 93    
Minimum Humidity 36    
Precipitation  
Precipitation 0.00 in 0.09 in 0.46 in (2006)
Month to date precipitation 0.67 0.56  
Year to date precipitation 20.90 19.79  
Sea Level Pressure  
Sea Level Pressure 30.07 in    
Wind  
Wind Speed 4 mph (WSW)    
Max Wind Speed 12 mph    
Max Gust Speed 17 mph    
Visibility 10 miles    
Events      
T = Trace of Precipitation, MM = Missing Value Source: NWS Daily Summary

Daily Weather History Graph

Daily Weather History Graph

Search for Another Location

Airport or City:

Trip Planner

Search our weather history database for the weather conditions in past years. The results will help you decide how hot, cold, wet, or windy it might be!

Date:

Astronomy

May. 08, 2013 Rise Set
Actual Time 5:50 AM CDT 7:24 PM CDT
Civil Twilight 5:24 AM CDT 7:50 PM CDT
Nautical Twilight 4:53 AM CDT 8:21 PM CDT
Astronomical Twilight 4:20 AM CDT 8:54 PM CDT
Moon 4:53 AM CDT (5/8) 6:24 PM CDT (5/8)
Length of Visible Light 14h 25m
Length of Day
13h 33m
Waning Crescent, 2% of the Moon is Illuminated
May 8
Waning Crescent
May 9
New
May 17
First Quarter
May 24
Full
May 31
Last Quarter

Hourly Weather History & Observations

Time (CDT) Temp. Heat Index Dew Point Humidity Pressure Visibility Wind Dir Wind Speed Gust Speed Precip Events Conditions
12:53 AM 60.1 °F - 57.0 °F 90% 30.03 in 10.0 mi Calm Calm - N/A   Clear
1:53 AM 59.0 °F - 57.0 °F 93% 30.01 in 10.0 mi Calm Calm - N/A   Clear
2:53 AM 57.0 °F - 55.0 °F 93% 30.01 in 10.0 mi Calm Calm - N/A   Clear
3:53 AM 57.0 °F - 55.0 °F 93% 30.02 in 10.0 mi Calm Calm - N/A   Clear
4:53 AM 55.0 °F - 53.1 °F 93% 30.03 in 8.0 mi Calm Calm - N/A   Clear
5:53 AM 55.0 °F - 53.1 °F 93% 30.05 in 10.0 mi Calm Calm - N/A   Clear
6:53 AM 57.0 °F - 55.0 °F 93% 30.08 in 10.0 mi Calm Calm - N/A   Clear
7:53 AM 64.0 °F - 57.0 °F 78% 30.10 in 10.0 mi Calm Calm - N/A   Clear
8:53 AM 70.0 °F - 57.0 °F 63% 30.10 in 10.0 mi Calm Calm - N/A   Clear
9:53 AM 73.9 °F - 55.0 °F 52% 30.11 in 10.0 mi Calm Calm - N/A   Clear
10:53 AM 75.0 °F - 55.0 °F 50% 30.11 in 10.0 mi Calm Calm - N/A   Scattered Clouds
11:53 AM 78.1 °F - 54.0 °F 43% 30.10 in 10.0 mi WNW 9.2 mph - N/A   Clear
12:53 PM 77.0 °F - 52.0 °F 42% 30.09 in 10.0 mi SW 3.5 mph - N/A   Mostly Cloudy
1:53 PM 79.0 °F - 53.1 °F 40% 30.08 in 10.0 mi West 3.5 mph - N/A   Mostly Cloudy
2:53 PM 81.0 °F 80.4 °F 53.1 °F 38% 30.06 in 10.0 mi West 6.9 mph - N/A   Mostly Cloudy
3:53 PM 81.0 °F - 52.0 °F 36% 30.04 in 10.0 mi NW 8.1 mph - N/A   Partly Cloudy
4:53 PM 80.1 °F 79.9 °F 53.1 °F 39% 30.04 in 10.0 mi West 6.9 mph - N/A   Scattered Clouds
5:53 PM 79.0 °F - 55.0 °F 44% 30.04 in 10.0 mi SW 8.1 mph - N/A   Partly Cloudy
6:53 PM 75.9 °F - 59.0 °F 56% 30.04 in 10.0 mi SW 6.9 mph - N/A   Overcast
9:53 PM 66.9 °F - 62.1 °F 84% 30.10 in 10.0 mi SW 4.6 mph - N/A   Clear
10:53 PM 66.0 °F - 62.1 °F 87% 30.11 in 10.0 mi SW 4.6 mph - N/A   Clear
11:53 PM 64.0 °F - 62.1 °F 93% 30.11 in 9.0 mi SSW 3.5 mph - N/A   Clear